Private Wetterstation Wechselburg
Wetterdaten: Freitag, 17.02.2012
Datum Zeit Temp. +2m Bodentemp. Temp.+5cm Temp. Wind Windchill X Diff Temp. Feuchte +2m Feuchte +5cm Sonnenschein Luftdruck Regen Wind Richtung Richtung Sonnenschein UV Taupunkt Windchill Windben
17.02.2012 00:00 0,9 C 2,8 C 0,7 C 0,2 C -2,2 C 0,0 C 91 % 93 % 0 % 1022,4 hPa 0,0 l/m 8,2 km/h (2 Bft) W-SW 247 0 min 0,0 UV-I -0,4 C -5,4 C 12,7 km/h (3 Bft)
17.02.2012 00:09 0,9 C 2,8 C 0,6 C 0,2 C -2,1 C 0,0 C 91 % 93 % 0 % 1022,4 hPa 0,0 l/m 7,7 km/h (2 Bft) N 0 0 min 0,0 UV-I -0,4 C -5,1 C 9,7 km/h (2 Bft)
17.02.2012 00:11 0,9 C 2,8 C 0,6 C 0,0 C -1,9 C 0,0 C 91 % 93 % 0 % 1022,4 hPa 0,0 l/m 7,2 km/h (2 Bft) N 0 0 min 0,0 UV-I -0,4 C -4,7 C 6,6 km/h (2 Bft)
17.02.2012 00:25 0,9 C 2,8 C 0,6 C 0,0 C -1,7 C 0,0 C 91 % 93 % 0 % 1021,8 hPa 0,7 l/m 6,6 km/h (2 Bft) W-SW 247 0 min 0,0 UV-I -0,4 C -4,2 C 7,7 km/h (2 Bft)
17.02.2012 00:30 0,9 C 2,9 C 0,6 C 0,2 C -1,3 C 0,0 C 91 % 93 % 0 % 1021,8 hPa 0,0 l/m 5,6 km/h (1 Bft) SW 225 0 min 0,0 UV-I -0,4 C -3,3 C 7,7 km/h (2 Bft)
17.02.2012 00:35 0,9 C 2,9 C 0,6 C 0,1 C -1,4 C 0,0 C 91 % 93 % 0 % 1021,8 hPa 0,0 l/m 5,8 km/h (2 Bft) W-SW 247 0 min 0,0 UV-I -0,4 C -3,5 C 8,5 km/h (2 Bft)
17.02.2012 00:40 0,9 C 2,9 C 0,6 C 0,2 C -1,3 C 0,0 C 91 % 93 % 0 % 1021,8 hPa 0,0 l/m 6,0 km/h (2 Bft) W 270 0 min 0,0 UV-I -0,4 C -3,5 C 10,8 km/h (2 Bft)
17.02.2012 00:45 0,9 C 3,0 C 0,7 C 0,1 C -1,6 C 0,0 C 91 % 93 % 0 % 1021,8 hPa 0,7 l/m 6,8 km/h (2 Bft) W-SW 247 0 min 0,0 UV-I -0,4 C -4,2 C 7,9 km/h (2 Bft)
17.02.2012 00:50 0,9 C 3,0 C 0,7 C 0,1 C -1,6 C 0,0 C 91 % 93 % 0 % 1021,8 hPa 0,0 l/m 6,8 km/h (2 Bft) W-SW 247 0 min 0,0 UV-I -0,4 C -4,2 C 6,3 km/h (2 Bft)
17.02.2012 00:55 0,9 C 3,0 C 0,7 C 0,0 C -1,7 C 0,0 C 91 % 93 % 0 % 1021,8 hPa 0,0 l/m 7,1 km/h (2 Bft) W 270 0 min 0,0 UV-I -0,4 C -4,4 C 13,4 km/h (3 Bft)
17.02.2012 01:00 0,9 C 3,0 C 0,7 C 0,0 C -1,7 C 0,0 C 91 % 93 % 0 % 1021,8 hPa 0,0 l/m 7,4 km/h (2 Bft) O 90 0 min 0,0 UV-I -0,4 C -4,5 C 14,3 km/h (3 Bft)
17.02.2012 01:09 0,9 C 3,1 C 0,7 C 0,0 C -1,8 C 0,0 C 92 % 93 % 0 % 1021,8 hPa 0,7 l/m 7,6 km/h (2 Bft) N 0 0 min 0,0 UV-I -0,2 C -4,7 C 12,7 km/h (3 Bft)
17.02.2012 01:25 1,0 C 3,4 C 0,7 C 0,3 C -2,1 C 0,0 C 92 % 93 % 0 % 1021,9 hPa 0,7 l/m 8,5 km/h (2 Bft) W-SW 247 0 min 0,0 UV-I -0,2 C -5,4 C 14,6 km/h (3 Bft)
17.02.2012 01:30 1,0 C 3,5 C 0,8 C 0,3 C -2,2 C 0,0 C 92 % 93 % 0 % 1021,9 hPa 0,0 l/m 9,2 km/h (2 Bft) W-SW 247 0 min 0,0 UV-I -0,2 C -5,7 C 8,9 km/h (2 Bft)
17.02.2012 01:35 1,1 C 3,5 C 0,8 C 0,0 C -2,2 C 0,0 C 92 % 93 % 0 % 1021,9 hPa 0,0 l/m 9,5 km/h (2 Bft) W-SW 247 0 min 0,0 UV-I -0,1 C -5,8 C 12,7 km/h (3 Bft)
17.02.2012 01:40 1,1 C 3,6 C 0,8 C 0,3 C -2,1 C 0,0 C 92 % 94 % 0 % 1021,8 hPa 0,0 l/m 9,0 km/h (2 Bft) SW 225 0 min 0,0 UV-I -0,1 C -5,5 C 14,8 km/h (3 Bft)
17.02.2012 01:45 1,0 C 3,7 C 0,8 C 0,3 C -2,2 C 0,0 C 92 % 94 % 0 % 1021,8 hPa 0,0 l/m 9,2 km/h (2 Bft) W-SW 247 0 min 0,0 UV-I -0,2 C -5,7 C 11,6 km/h (2 Bft)
17.02.2012 01:50 1,1 C 3,7 C 0,8 C 0,0 C -2,2 C 0,0 C 91 % 94 % 0 % 1021,8 hPa 0,0 l/m 9,3 km/h (2 Bft) W-NW 292 0 min 0,0 UV-I -0,2 C -5,7 C 16,1 km/h (3 Bft)
17.02.2012 01:55 1,1 C 3,8 C 0,8 C 0,3 C -2,3 C 0,0 C 92 % 94 % 0 % 1021,8 hPa 0,7 l/m 9,5 km/h (2 Bft) SW 225 0 min 0,0 UV-I -0,1 C -5,9 C 11,6 km/h (2 Bft)
17.02.2012 02:00 1,1 C 3,8 C 0,8 C 0,0 C -2,3 C 0,0 C 92 % 94 % 0 % 1021,4 hPa 0,0 l/m 9,7 km/h (2 Bft) W 270 0 min 0,0 UV-I -0,1 C -6,0 C 17,5 km/h (3 Bft)
17.02.2012 02:08 1,0 C 4,0 C 0,7 C 0,2 C -2,5 C 0,0 C 91 % 94 % 0 % 1021,4 hPa 0,0 l/m 10,3 km/h (2 Bft) N 0 0 min 0,0 UV-I -0,3 C -6,4 C 21,9 km/h (4 Bft)
17.02.2012 02:11 1,1 C 4,1 C 0,7 C 0,2 C -2,6 C 0,0 C 91 % 94 % 0 % 1021,4 hPa 0,0 l/m 10,0 km/h (2 Bft) N 0 0 min 0,0 UV-I -0,2 C -6,4 C 8,5 km/h (2 Bft)
17.02.2012 02:25 1,1 C 4,3 C 0,8 C 0,2 C -2,8 C 0,0 C 92 % 94 % 0 % 1021,5 hPa 0,7 l/m 11,6 km/h (2 Bft) SW 225 0 min 0,0 UV-I -0,1 C -7,1 C 23,7 km/h (4 Bft)
17.02.2012 02:30 1,1 C 4,3 C 0,8 C 0,2 C -2,9 C 0,0 C 92 % 94 % 0 % 1021,5 hPa 0,0 l/m 12,4 km/h (3 Bft) W-SW 247 0 min 0,0 UV-I -0,1 C -7,4 C 18,8 km/h (3 Bft)
17.02.2012 02:35 1,1 C 4,5 C 0,8 C 0,1 C -3,4 C 0,0 C 92 % 94 % 0 % 1021,5 hPa 0,7 l/m 14,5 km/h (3 Bft) W 270 0 min 0,0 UV-I -0,1 C -8,5 C 13,5 km/h (3 Bft)
17.02.2012 02:40 1,1 C 4,5 C 0,8 C 0,1 C -3,3 C 0,0 C 92 % 94 % 0 % 1021,2 hPa 0,0 l/m 14,2 km/h (3 Bft) W-SW 247 0 min 0,0 UV-I -0,1 C -8,3 C 13,8 km/h (3 Bft)
17.02.2012 02:45 1,0 C 4,6 C 0,8 C 0,0 C -3,2 C 0,0 C 92 % 94 % 0 % 1021,2 hPa 0,0 l/m 13,2 km/h (3 Bft) W-SW 247 0 min 0,0 UV-I -0,2 C -8,0 C 16,1 km/h (3 Bft)
17.02.2012 02:50 1,0 C 4,6 C 0,8 C 0,1 C -2,9 C 0,0 C 91 % 94 % 0 % 1021,2 hPa 0,0 l/m 11,7 km/h (2 Bft) SW 225 0 min 0,0 UV-I -0,3 C -7,2 C 11,9 km/h (2 Bft)
17.02.2012 02:55 1,0 C 4,7 C 0,8 C -0,3 C -2,9 C 0,0 C 92 % 94 % 0 % 1021,2 hPa 0,7 l/m 11,7 km/h (2 Bft) W-NW 292 0 min 0,0 UV-I -0,2 C -7,2 C 17,1 km/h (3 Bft)
17.02.2012 03:00 1,1 C 4,7 C 0,9 C 0,2 C -2,7 C 0,0 C 92 % 94 % 0 % 1020,9 hPa 0,0 l/m 11,3 km/h (2 Bft) W 270 0 min 0,0 UV-I -0,1 C -6,9 C 11,4 km/h (2 Bft)
17.02.2012 03:14 1,1 C 4,8 C 0,8 C 0,3 C -2,1 C 0,0 C 92 % 94 % 0 % 1020,9 hPa 0,0 l/m 10,0 km/h (2 Bft) N 0 0 min 0,0 UV-I -0,1 C -5,8 C 21,2 km/h (4 Bft)
17.02.2012 03:20 1,2 C 4,8 C 0,9 C 0,4 C -2,2 C 0,0 C 92 % 94 % 0 % 1020,2 hPa 0,7 l/m 10,5 km/h (2 Bft) SW 225 0 min 0,0 UV-I 0,0 C -6,1 C 14,3 km/h (3 Bft)
17.02.2012 03:25 1,3 C 4,9 C 1,1 C 0,1 C -2,2 C 0,0 C 92 % 94 % 0 % 1020,2 hPa 0,0 l/m 10,8 km/h (2 Bft) W 270 0 min 0,0 UV-I 0,1 C -6,2 C 13,2 km/h (3 Bft)
17.02.2012 03:30 1,3 C 4,9 C 1,1 C 0,5 C -2,1 C 0,0 C 92 % 94 % 0 % 1020,2 hPa 0,0 l/m 10,3 km/h (2 Bft) S 180 0 min 0,0 UV-I 0,1 C -5,9 C 17,5 km/h (3 Bft)
17.02.2012 03:35 1,4 C 4,9 C 1,1 C 0,6 C -1,8 C 0,0 C 92 % 94 % 0 % 1020,2 hPa 0,0 l/m 9,7 km/h (2 Bft) S-SW 202 0 min 0,0 UV-I 0,2 C -5,4 C 15,3 km/h (3 Bft)
17.02.2012 03:40 1,5 C 4,9 C 1,1 C 0,7 C -1,9 C 0,0 C 92 % 94 % 0 % 1020,1 hPa 0,0 l/m 10,5 km/h (2 Bft) W-SW 247 0 min 0,0 UV-I 0,3 C -5,7 C 16,7 km/h (3 Bft)
17.02.2012 03:45 1,7 C 5,0 C 1,2 C 0,5 C -1,9 C 0,0 C 92 % 94 % 0 % 1020,1 hPa 0,0 l/m 11,3 km/h (2 Bft) W-SW 247 0 min 0,0 UV-I 0,5 C -5,9 C 14,2 km/h (3 Bft)
17.02.2012 03:50 1,6 C 5,0 C 1,2 C 0,8 C -1,6 C 0,0 C 92 % 94 % 0 % 1020,1 hPa 0,0 l/m 10,3 km/h (2 Bft) W-SW 247 0 min 0,0 UV-I 0,4 C -5,3 C 11,7 km/h (2 Bft)
17.02.2012 03:55 1,7 C 5,0 C 1,2 C 1,0 C -1,3 C 0,0 C 92 % 94 % 0 % 1020,1 hPa 0,7 l/m 9,7 km/h (2 Bft) S 180 0 min 0,0 UV-I 0,5 C -4,8 C 10,3 km/h (2 Bft)
17.02.2012 04:00 1,9 C 5,0 C 1,3 C 1,1 C -1,5 C 0,0 C 91 % 94 % 0 % 1019,9 hPa 0,0 l/m 10,5 km/h (2 Bft) W-SW 247 0 min 0,0 UV-I 0,6 C -5,2 C 9,2 km/h (2 Bft)
17.02.2012 04:09 1,8 C 5,0 C 1,4 C 1,0 C -1,6 C 0,0 C 91 % 94 % 0 % 1019,9 hPa 0,0 l/m 10,9 km/h (2 Bft) N 0 0 min 0,0 UV-I 0,5 C -5,5 C 12,7 km/h (3 Bft)
17.02.2012 04:11 1,9 C 5,1 C 1,5 C 0,7 C -1,6 C 0,0 C 91 % 94 % 0 % 1019,9 hPa 0,0 l/m 11,4 km/h (2 Bft) N 0 0 min 0,0 UV-I 0,6 C -5,6 C 15,1 km/h (3 Bft)
17.02.2012 04:25 2,0 C 5,1 C 1,5 C 1,2 C -1,3 C 0,0 C 91 % 94 % 0 % 1019,9 hPa 0,0 l/m 10,1 km/h (2 Bft) S-SW 202 0 min 0,0 UV-I 0,7 C -4,9 C 14,8 km/h (3 Bft)
17.02.2012 04:30 2,1 C 5,1 C 1,5 C 1,3 C -1,2 C 0,0 C 91 % 94 % 0 % 1019,9 hPa 0,0 l/m 10,1 km/h (2 Bft) SW 225 0 min 0,0 UV-I 0,8 C -4,8 C 10,1 km/h (2 Bft)
17.02.2012 04:35 2,0 C 5,1 C 1,5 C 1,3 C -1,1 C 0,0 C 91 % 94 % 0 % 1019,9 hPa 0,7 l/m 9,7 km/h (2 Bft) W-SW 247 0 min 0,0 UV-I 0,7 C -4,5 C 10,8 km/h (2 Bft)
17.02.2012 04:40 2,0 C 5,1 C 1,6 C 1,3 C -1,3 C 0,0 C 91 % 94 % 0 % 1019,7 hPa 0,0 l/m 10,3 km/h (2 Bft) SW 225 0 min 0,0 UV-I 0,7 C -4,9 C 15,6 km/h (3 Bft)
17.02.2012 04:44 2,2 C 5,3 C 1,6 C 1,0 C -1,3 C 0,0 C 91 % 94 % 0 % 1019,7 hPa 0,0 l/m 10,9 km/h (2 Bft) W 270 0 min 0,0 UV-I 0,9 C -5,1 C 13,5 km/h (3 Bft)
17.02.2012 04:49 2,2 C 5,3 C 1,7 C 1,4 C -1,2 C 0,0 C 91 % 94 % 0 % 1019,7 hPa 0,0 l/m 10,6 km/h (2 Bft) S-SW 202 0 min 0,0 UV-I 0,9 C -4,9 C 12,6 km/h (3 Bft)
17.02.2012 04:54 2,3 C 5,3 C 1,6 C 1,5 C -0,9 C 0,0 C 91 % 94 % 0 % 1019,7 hPa 0,0 l/m 9,8 km/h (2 Bft) SW 225 0 min 0,0 UV-I 1,0 C -4,3 C 9,3 km/h (2 Bft)
17.02.2012 04:58 2,3 C 5,3 C 1,6 C 1,2 C -0,9 C 0,0 C 91 % 94 % 0 % 1019,7 hPa 0,0 l/m 9,8 km/h (2 Bft) SW 225 0 min 0,0 UV-I 1,0 C -4,3 C 9,3 km/h (2 Bft)
17.02.2012 04:59 2,3 C 5,3 C 1,6 C 1,7 C -0,6 C 0,0 C 91 % 94 % 0 % 1019,7 hPa 0,0 l/m 8,7 km/h (2 Bft) SW 225 0 min 0,0 UV-I 1,0 C -3,7 C 10,1 km/h (2 Bft)
17.02.2012 05:04 2,3 C 5,3 C 1,6 C 1,6 C -0,8 C 0,0 C 91 % 94 % 0 % 1019,7 hPa 0,7 l/m 9,5 km/h (2 Bft) W-SW 247 0 min 0,0 UV-I 1,0 C -4,1 C 13,2 km/h (3 Bft)
17.02.2012 05:09 2,3 C 5,3 C 1,7 C 1,6 C -0,9 C 0,0 C 91 % 94 % 0 % 1019,7 hPa 0,0 l/m 10,6 km/h (2 Bft) SW 225 0 min 0,0 UV-I 1,0 C -4,5 C 11,9 km/h (2 Bft)
17.02.2012 05:14 2,3 C 5,3 C 1,7 C 1,5 C -1,3 C 0,0 C 91 % 94 % 0 % 1019,7 hPa 0,0 l/m 12,7 km/h (3 Bft) W-SW 247 0 min 0,0 UV-I 1,0 C -5,5 C 14,2 km/h (3 Bft)
17.02.2012 05:19 2,4 C 5,3 C 1,7 C 1,2 C -1,3 C 0,0 C 91 % 94 % 0 % 1019,4 hPa 0,0 l/m 12,9 km/h (3 Bft) W-SW 247 0 min 0,0 UV-I 1,1 C -5,6 C 17,4 km/h (3 Bft)
17.02.2012 05:24 2,5 C 5,3 C 1,7 C 1,7 C -0,9 C 0,0 C 91 % 94 % 0 % 1019,4 hPa 0,0 l/m 11,3 km/h (2 Bft) SW 225 0 min 0,0 UV-I 1,2 C -4,7 C 13,4 km/h (3 Bft)
17.02.2012 05:29 2,5 C 5,3 C 1,9 C 1,7 C -0,8 C 0,0 C 91 % 94 % 0 % 1019,4 hPa 0,0 l/m 10,5 km/h (2 Bft) SW 225 0 min 0,0 UV-I 1,2 C -4,4 C 4,3 km/h (1 Bft)
17.02.2012 05:34 2,5 C 5,4 C 1,9 C 1,8 C -0,5 C 0,0 C 91 % 94 % 0 % 1019,4 hPa 0,0 l/m 9,7 km/h (2 Bft) W-SW 247 0 min 0,0 UV-I 1,2 C -3,8 C 7,1 km/h (2 Bft)
17.02.2012 05:39 2,4 C 5,4 C 1,9 C 1,7 C -0,6 C 0,0 C 91 % 94 % 0 % 1019,4 hPa 0,0 l/m 10,0 km/h (2 Bft) W-SW 247 0 min 0,0 UV-I 1,1 C -4,0 C 11,1 km/h (2 Bft)
17.02.2012 05:44 2,4 C 5,4 C 1,9 C 1,4 C -0,6 C 0,0 C 91 % 94 % 0 % 1019,4 hPa 0,0 l/m 10,0 km/h (2 Bft) W 270 0 min 0,0 UV-I 1,1 C -4,0 C 11,6 km/h (2 Bft)
17.02.2012 05:49 2,5 C 5,4 C 1,9 C 1,5 C -0,6 C 0,0 C 91 % 94 % 0 % 1019,4 hPa 0,0 l/m 9,8 km/h (2 Bft) W-SW 247 0 min 0,0 UV-I 1,2 C -4,0 C 8,5 km/h (2 Bft)
17.02.2012 05:54 2,5 C 5,4 C 1,8 C 1,8 C -0,3 C 0,0 C 91 % 94 % 0 % 1019,4 hPa 0,0 l/m 9,0 km/h (2 Bft) W-SW 247 0 min 0,0 UV-I 1,2 C -3,4 C 9,5 km/h (2 Bft)
17.02.2012 05:59 2,5 C 5,4 C 1,8 C 1,9 C -0,2 C 0,0 C 91 % 94 % 0 % 1019,4 hPa 0,0 l/m 8,7 km/h (2 Bft) SW 225 0 min 0,0 UV-I 1,2 C -3,2 C 9,0 km/h (2 Bft)
17.02.2012 06:04 2,5 C 5,4 C 1,9 C 1,9 C -0,4 C 0,0 C 91 % 94 % 0 % 1019,4 hPa 0,0 l/m 9,3 km/h (2 Bft) W-NW 292 0 min 0,0 UV-I 1,2 C -3,6 C 15,8 km/h (3 Bft)
17.02.2012 06:09 2,5 C 5,4 C 1,9 C 1,5 C -0,4 C 0,0 C 91 % 94 % 0 % 1019,4 hPa 0,0 l/m 9,3 km/h (2 Bft) NW 315 0 min 0,0 UV-I 1,2 C -3,6 C 11,1 km/h (2 Bft)
17.02.2012 06:14 2,5 C 5,4 C 1,9 C 1,5 C -0,4 C 0,0 C 91 % 94 % 0 % 1019,4 hPa 0,0 l/m 9,2 km/h (2 Bft) W-SW 247 0 min 0,0 UV-I 1,2 C -3,6 C 10,9 km/h (2 Bft)
17.02.2012 06:19 2,5 C 5,4 C 1,9 C 1,9 C -0,2 C 0,0 C 91 % 94 % 0 % 1019,4 hPa 0,0 l/m 9,2 km/h (2 Bft) W-SW 247 0 min 0,0 UV-I 1,2 C -3,3 C 10,8 km/h (2 Bft)
17.02.2012 06:24 2,7 C 5,4 C 1,9 C 2,0 C -0,1 C 0,0 C 90 % 94 % 0 % 1019,4 hPa 0,0 l/m 8,7 km/h (2 Bft) SW 225 0 min 0,0 UV-I 1,2 C -3,1 C 8,5 km/h (2 Bft)
17.02.2012 06:29 2,7 C 5,4 C 1,9 C 1,8 C -0,1 C 0,0 C 91 % 94 % 0 % 1019,4 hPa 0,0 l/m 8,7 km/h (2 Bft) W-SW 247 0 min 0,0 UV-I 1,4 C -3,1 C 15,3 km/h (3 Bft)
17.02.2012 06:34 2,7 C 5,4 C 2,0 C 2,0 C -0,2 C 0,0 C 91 % 94 % 0 % 1019,4 hPa 0,0 l/m 9,3 km/h (2 Bft) W-SW 247 0 min 0,0 UV-I 1,4 C -3,4 C 7,4 km/h (2 Bft)
17.02.2012 06:39 2,7 C 5,5 C 2,0 C 1,7 C -0,2 C 0,0 C 91 % 94 % 0 % 1019,2 hPa 0,0 l/m 9,5 km/h (2 Bft) W 270 0 min 0,0 UV-I 1,4 C -3,4 C 11,4 km/h (2 Bft)
17.02.2012 06:44 2,7 C 5,5 C 2,1 C 1,7 C -0,2 C 0,0 C 91 % 94 % 0 % 1019,2 hPa 0,0 l/m 9,3 km/h (2 Bft) S-SO 157 0 min 0,0 UV-I 1,4 C -3,4 C 12,4 km/h (3 Bft)
17.02.2012 06:49 2,7 C 5,5 C 2,0 C 2,1 C 0,0 C 0,0 C 91 % 94 % 0 % 1019,2 hPa 0,0 l/m 9,2 km/h (2 Bft) W-SW 247 0 min 0,0 UV-I 1,4 C -3,1 C 8,9 km/h (2 Bft)
17.02.2012 06:54 2,7 C 5,5 C 2,1 C 2,0 C -0,3 C 0,0 C 91 % 94 % 0 % 1019,2 hPa 0,0 l/m 9,8 km/h (2 Bft) SW 225 0 min 0,0 UV-I 1,4 C -3,6 C 12,2 km/h (2 Bft)
17.02.2012 06:59 2,6 C 5,5 C 2,0 C 2,0 C -0,2 C 0,0 C 91 % 94 % 0 % 1018,7 hPa 0,0 l/m 9,5 km/h (2 Bft) S-SW 202 0 min 0,0 UV-I 1,3 C -3,4 C 12,4 km/h (3 Bft)
17.02.2012 07:04 2,7 C 5,5 C 2,0 C 2,1 C 0,0 C 0,0 C 91 % 94 % 0 % 1018,7 hPa 0,0 l/m 8,9 km/h (2 Bft) W-SW 247 0 min 0,0 UV-I 1,4 C -3,0 C 9,3 km/h (2 Bft)
17.02.2012 07:09 2,6 C 5,5 C 2,0 C 1,7 C 0,0 C 0,0 C 91 % 94 % 0 % 1018,7 hPa 0,0 l/m 8,7 km/h (2 Bft) W-SW 247 0 min 0,0 UV-I 1,3 C -3,0 C 10,9 km/h (2 Bft)
17.02.2012 07:14 2,7 C 5,5 C 2,0 C 2,1 C 0,1 C 0,0 C 91 % 94 % 0 % 1018,7 hPa 0,0 l/m 8,4 km/h (2 Bft) W-SW 247 0 min 0,0 UV-I 1,4 C -2,7 C 13,4 km/h (3 Bft)
17.02.2012 07:19 2,7 C 5,5 C 2,0 C 1,8 C 0,1 C 0,0 C 91 % 94 % 0 % 1019,0 hPa 0,0 l/m 8,9 km/h (2 Bft) SW 225 0 min 0,0 UV-I 1,4 C -2,9 C 6,6 km/h (2 Bft)
17.02.2012 07:24 2,7 C 5,5 C 2,1 C 2,1 C 0,2 C 0,0 C 91 % 94 % 0 % 1019,0 hPa 0,0 l/m 8,7 km/h (2 Bft) W 270 0 min 0,0 UV-I 1,4 C -2,7 C 7,7 km/h (2 Bft)
17.02.2012 07:29 2,7 C 5,5 C 2,1 C 2,0 C 0,5 C 0,0 C 91 % 94 % 0 % 1019,0 hPa 0,0 l/m 7,4 km/h (2 Bft) S-SW 202 0 min 0,0 UV-I 1,4 C -2,0 C 7,1 km/h (2 Bft)
17.02.2012 07:34 2,8 C 5,5 C 2,0 C 2,0 C 0,5 C 0,0 C 91 % 94 % 0 % 1019,0 hPa 0,0 l/m 7,7 km/h (2 Bft) SW 225 0 min 0,0 UV-I 1,5 C -2,1 C 10,8 km/h (2 Bft)
17.02.2012 07:39 2,8 C 5,5 C 2,0 C 2,3 C 0,4 C 0,0 C 91 % 94 % 0 % 1019,8 hPa 0,0 l/m 8,2 km/h (2 Bft) W-SW 247 0 min 0,0 UV-I 1,5 C -2,3 C 8,7 km/h (2 Bft)
17.02.2012 07:44 2,9 C 5,5 C 2,1 C 2,3 C 0,2 C 0,0 C 91 % 94 % 0 % 1019,8 hPa 0,0 l/m 9,2 km/h (2 Bft) W-SW 247 0 min 0,0 UV-I 1,6 C -2,9 C 16,3 km/h (3 Bft)
17.02.2012 07:49 2,8 C 5,5 C 2,1 C 1,9 C 0,2 C 0,0 C 91 % 94 % 0 % 1019,8 hPa 0,0 l/m 9,2 km/h (2 Bft) W-SW 247 0 min 0,0 UV-I 1,5 C -2,9 C 12,2 km/h (2 Bft)
17.02.2012 07:54 2,8 C 5,5 C 2,1 C 2,3 C 0,7 C 0,0 C 90 % 94 % 0 % 1019,8 hPa 0,0 l/m 7,7 km/h (2 Bft) SW 225 0 min 0,0 UV-I 1,3 C -1,8 C 7,1 km/h (2 Bft)
17.02.2012 07:59 2,8 C 5,5 C 2,1 C 2,1 C 0,7 C 0,0 C 90 % 94 % 0 % 1019,3 hPa 0,0 l/m 7,4 km/h (2 Bft) SW 225 0 min 0,0 UV-I 1,3 C -1,7 C 9,7 km/h (2 Bft)
17.02.2012 08:04 2,9 C 5,5 C 2,1 C 2,4 C 0,4 C 0,0 C 90 % 94 % 0 % 1019,3 hPa 0,0 l/m 8,2 km/h (2 Bft) W-SW 247 0 min 0,0 UV-I 1,4 C -2,3 C 17,9 km/h (3 Bft)
17.02.2012 08:09 2,9 C 5,5 C 2,1 C 2,3 C 0,5 C 0,0 C 90 % 94 % 0 % 1019,3 hPa 0,0 l/m 8,0 km/h (2 Bft) SW 225 0 min 0,0 UV-I 1,4 C -2,2 C 9,7 km/h (2 Bft)
17.02.2012 08:14 2,9 C 5,5 C 2,1 C 2,1 C 0,5 C 0,0 C 90 % 94 % 0 % 1019,3 hPa 0,0 l/m 8,5 km/h (2 Bft) W-SW 247 0 min 0,0 UV-I 1,4 C -2,3 C 14,2 km/h (3 Bft)
17.02.2012 08:19 2,9 C 5,5 C 2,2 C 2,4 C 0,7 C 0,0 C 90 % 94 % 0 % 1019,3 hPa 0,0 l/m 8,4 km/h (2 Bft) W 270 0 min 0,0 UV-I 1,4 C -2,0 C 8,4 km/h (2 Bft)
17.02.2012 08:24 3,0 C 5,5 C 2,2 C 2,5 C 0,8 C 0,0 C 90 % 94 % 0 % 1019,3 hPa 0,0 l/m 7,9 km/h (2 Bft) S-SO 157 0 min 0,0 UV-I 1,5 C -1,8 C 6,1 km/h (2 Bft)
17.02.2012 08:29 3,0 C 5,5 C 2,1 C 2,4 C 1,2 C 0,0 C 90 % 94 % 0 % 1019,3 hPa 0,0 l/m 6,8 km/h (2 Bft) SW 225 0 min 0,0 UV-I 1,5 C -0,9 C 5,0 km/h (1 Bft)
17.02.2012 08:34 3,0 C 5,5 C 2,1 C 2,4 C 1,3 C 0,0 C 90 % 94 % 0 % 1019,3 hPa 0,0 l/m 6,3 km/h (2 Bft) W-SW 247 0 min 0,0 UV-I 1,5 C -0,6 C 8,7 km/h (2 Bft)
17.02.2012 08:39 3,0 C 5,5 C 2,3 C 2,5 C 1,4 C 0,0 C 90 % 94 % 0 % 1019,3 hPa 0,0 l/m 6,0 km/h (2 Bft) SO 135 0 min 0,0 UV-I 1,5 C -0,4 C 9,2 km/h (2 Bft)
17.02.2012 08:44 3,1 C 5,5 C 2,2 C 2,6 C 1,5 C 0,0 C 90 % 94 % 0 % 1019,3 hPa 0,0 l/m 5,8 km/h (2 Bft) W-SW 247 0 min 0,0 UV-I 1,6 C -0,2 C 8,5 km/h (2 Bft)
17.02.2012 08:49 3,1 C 5,6 C 2,3 C 2,6 C 1,5 C 0,0 C 90 % 94 % 0 % 1019,3 hPa 0,0 l/m 5,8 km/h (2 Bft) W-SW 247 0 min 0,0 UV-I 1,6 C -0,2 C 8,2 km/h (2 Bft)
17.02.2012 08:54 3,1 C 5,4 C 2,3 C 2,6 C 1,6 C 0,0 C 90 % 94 % 0 % 1019,3 hPa 0,0 l/m 6,0 km/h (2 Bft) SW 225 0 min 0,0 UV-I 1,6 C -0,2 C 9,3 km/h (2 Bft)
17.02.2012 08:59 3,1 C 5,4 C 2,3 C 2,5 C 1,4 C 0,0 C 90 % 94 % 0 % 1019,3 hPa 0,7 l/m 6,3 km/h (2 Bft) W-SW 247 0 min 0,0 UV-I 1,6 C -0,5 C 10,9 km/h (2 Bft)
17.02.2012 09:04 3,0 C 5,6 C 2,3 C 2,5 C 1,4 C 0,0 C 90 % 94 % 0 % 1019,3 hPa 0,0 l/m 6,8 km/h (2 Bft) SW 225 0 min 0,0 UV-I 1,5 C -0,7 C 6,9 km/h (2 Bft)
17.02.2012 09:09 3,0 C 5,4 C 2,3 C 2,5 C 1,4 C 0,0 C 90 % 94 % 0 % 1019,3 hPa 0,0 l/m 6,9 km/h (2 Bft) W 270 0 min 0,0 UV-I 1,5 C -0,7 C 6,6 km/h (2 Bft)
17.02.2012 09:14 3,1 C 5,4 C 2,3 C 2,5 C 1,4 C 0,0 C 90 % 94 % 0 % 1019,3 hPa 0,0 l/m 6,9 km/h (2 Bft) W-SW 247 0 min 0,0 UV-I 1,6 C -0,7 C 6,8 km/h (2 Bft)
17.02.2012 09:19 3,1 C 5,6 C 2,3 C 2,6 C 1,6 C 0,0 C 90 % 94 % 0 % 1019,3 hPa 0,0 l/m 6,3 km/h (2 Bft) SW 225 0 min 0,0 UV-I 1,6 C -0,3 C 7,1 km/h (2 Bft)
17.02.2012 09:24 3,1 C 5,4 C 2,3 C 2,5 C 1,4 C 0,0 C 90 % 94 % 0 % 1019,3 hPa 0,0 l/m 6,8 km/h (2 Bft) W-SW 247 0 min 0,0 UV-I 1,6 C -0,7 C 6,6 km/h (2 Bft)
17.02.2012 09:29 3,1 C 5,6 C 2,4 C 2,5 C 1,4 C 0,0 C 90 % 94 % 0 % 1019,3 hPa 0,0 l/m 7,1 km/h (2 Bft) W-SW 247 0 min 0,0 UV-I 1,6 C -0,8 C 9,3 km/h (2 Bft)
17.02.2012 09:34 3,1 C 5,6 C 2,4 C 2,6 C 1,7 C 0,0 C 90 % 94 % 0 % 1019,3 hPa 0,0 l/m 6,1 km/h (2 Bft) W 270 0 min 0,0 UV-I 1,6 C -0,1 C 8,9 km/h (2 Bft)
17.02.2012 09:39 3,1 C 5,6 C 2,4 C 2,6 C 1,7 C 0,0 C 90 % 94 % 0 % 1019,3 hPa 0,0 l/m 6,1 km/h (2 Bft) W-SW 247 0 min 0,0 UV-I 1,6 C -0,1 C 8,0 km/h (2 Bft)
17.02.2012 09:44 3,2 C 5,6 C 2,5 C 2,8 C 1,3 C 0,0 C 90 % 95 % 0 % 1019,3 hPa 0,0 l/m 7,7 km/h (2 Bft) W-SW 247 0 min 0,0 UV-I 1,7 C -1,1 C 15,0 km/h (3 Bft)
17.02.2012 09:49 3,2 C 5,6 C 2,5 C 2,8 C 1,2 C 0,0 C 90 % 95 % 0 % 1019,3 hPa 0,0 l/m 8,2 km/h (2 Bft) W-SW 247 0 min 0,0 UV-I 1,7 C -1,4 C 9,3 km/h (2 Bft)
17.02.2012 09:54 3,2 C 5,6 C 2,5 C 2,5 C 1,2 C 0,0 C 90 % 95 % 0 % 1019,3 hPa 0,0 l/m 8,9 km/h (2 Bft) W-SW 247 0 min 0,0 UV-I 1,7 C -1,6 C 9,8 km/h (2 Bft)
17.02.2012 09:59 3,2 C 5,6 C 2,6 C 2,8 C 1,1 C 0,0 C 90 % 95 % 0 % 1019,5 hPa 0,0 l/m 9,2 km/h (2 Bft) W 270 0 min 0,0 UV-I 1,7 C -1,8 C 12,1 km/h (2 Bft)
17.02.2012 10:04 3,2 C 5,6 C 2,6 C 2,6 C 1,4 C 0,0 C 90 % 95 % 0 % 1019,5 hPa 0,0 l/m 7,6 km/h (2 Bft) SW 225 0 min 0,0 UV-I 1,7 C -1,0 C 8,9 km/h (2 Bft)
17.02.2012 10:09 3,2 C 5,6 C 2,5 C 2,7 C 1,7 C 0,0 C 90 % 95 % 0 % 1019,5 hPa 0,0 l/m 6,9 km/h (2 Bft) SW 225 0 min 0,0 UV-I 1,7 C -0,4 C 6,1 km/h (2 Bft)
17.02.2012 10:14 3,2 C 5,6 C 2,7 C 2,9 C 1,4 C 0,0 C 91 % 95 % 0 % 1019,5 hPa 0,0 l/m 7,7 km/h (2 Bft) W-SW 247 0 min 0,0 UV-I 1,9 C -1,0 C 6,3 km/h (2 Bft)
17.02.2012 10:19 3,3 C 5,6 C 2,7 C 2,9 C 1,3 C 0,0 C 91 % 95 % 0 % 1019,5 hPa 0,0 l/m 8,7 km/h (2 Bft) SW 225 0 min 0,0 UV-I 2,0 C -1,4 C 16,9 km/h (3 Bft)
17.02.2012 10:24 3,5 C 5,6 C 2,8 C 3,1 C 1,4 C 0,0 C 91 % 95 % 0 % 1019,5 hPa 0,0 l/m 9,2 km/h (2 Bft) S 180 0 min 0,0 UV-I 2,2 C -1,4 C 9,8 km/h (2 Bft)
17.02.2012 10:29 3,5 C 5,6 C 2,8 C 2,8 C 1,4 C 0,0 C 91 % 95 % 0 % 1019,5 hPa 0,0 l/m 9,5 km/h (2 Bft) W-SW 247 0 min 0,0 UV-I 2,2 C -1,5 C 11,4 km/h (2 Bft)
17.02.2012 10:34 3,6 C 5,6 C 2,9 C 3,1 C 1,2 C 0,0 C 91 % 95 % 0 % 1019,5 hPa 0,0 l/m 10,9 km/h (2 Bft) W-SW 247 0 min 0,0 UV-I 2,3 C -2,1 C 15,3 km/h (3 Bft)
17.02.2012 10:39 3,7 C 5,6 C 3,1 C 3,2 C 1,3 C 0,0 C 91 % 95 % 0 % 1019,8 hPa 0,0 l/m 11,4 km/h (2 Bft) SW 225 0 min 0,0 UV-I 2,4 C -2,1 C 11,4 km/h (2 Bft)
17.02.2012 10:44 3,9 C 5,6 C 3,1 C 3,4 C 1,6 C 0,0 C 90 % 95 % 0 % 1019,8 hPa 0,0 l/m 10,6 km/h (2 Bft) SW 225 0 min 0,0 UV-I 2,4 C -1,5 C 10,5 km/h (2 Bft)
17.02.2012 10:49 3,9 C 5,6 C 3,1 C 3,1 C 1,6 C 0,0 C 90 % 95 % 0 % 1019,8 hPa 0,0 l/m 10,6 km/h (2 Bft) W 270 0 min 0,0 UV-I 2,4 C -1,5 C 17,1 km/h (3 Bft)
17.02.2012 10:54 3,9 C 5,6 C 3,1 C 3,4 C 1,5 C 0,0 C 90 % 95 % 0 % 1019,8 hPa 0,0 l/m 10,5 km/h (2 Bft) W-SW 247 0 min 0,0 UV-I 2,4 C -1,6 C 13,0 km/h (3 Bft)
17.02.2012 10:59 3,9 C 5,6 C 3,2 C 3,4 C 1,4 C 0,0 C 90 % 95 % 0 % 1019,8 hPa 0,0 l/m 11,1 km/h (2 Bft) W-SW 247 0 min 0,0 UV-I 2,4 C -1,9 C 11,7 km/h (2 Bft)
17.02.2012 11:04 4,0 C 5,6 C 3,2 C 3,5 C 1,6 C 0,0 C 90 % 95 % 0 % 1019,8 hPa 0,0 l/m 10,8 km/h (2 Bft) SW 225 0 min 0,0 UV-I 2,5 C -1,6 C 12,4 km/h (3 Bft)
17.02.2012 11:09 4,1 C 5,6 C 3,1 C 3,6 C 1,9 C 0,0 C 90 % 95 % 0 % 1019,8 hPa 0,0 l/m 10,3 km/h (2 Bft) SW 225 0 min 0,0 UV-I 2,6 C -1,1 C 9,5 km/h (2 Bft)
17.02.2012 11:14 4,0 C 5,5 C 3,2 C 3,6 C 2,3 C 0,0 C 90 % 95 % 0 % 1019,8 hPa 0,0 l/m 9,7 km/h (2 Bft) S 180 0 min 0,0 UV-I 2,5 C -0,5 C 10,8 km/h (2 Bft)
17.02.2012 11:19 4,0 C 5,4 C 3,2 C 3,7 C 2,5 C 0,0 C 90 % 95 % 0 % 1019,7 hPa 0,0 l/m 9,3 km/h (2 Bft) W-SW 247 0 min 0,0 UV-I 2,5 C -0,2 C 11,1 km/h (2 Bft)
17.02.2012 11:24 4,1 C 5,4 C 3,3 C 3,8 C 2,4 C 0,0 C 90 % 94 % 0 % 1019,7 hPa 0,0 l/m 9,5 km/h (2 Bft) W-SW 247 0 min 0,0 UV-I 2,6 C -0,3 C 11,1 km/h (2 Bft)
17.02.2012 11:29 4,1 C 5,4 C 3,3 C 3,8 C 2,5 C 0,0 C 90 % 94 % 0 % 1019,7 hPa 0,0 l/m 9,3 km/h (2 Bft) W-SW 247 0 min 0,0 UV-I 2,6 C -0,2 C 11,1 km/h (2 Bft)
17.02.2012 11:34 4,1 C 5,5 C 3,3 C 3,8 C 2,6 C 0,0 C 90 % 94 % 0 % 1019,7 hPa 0,0 l/m 9,0 km/h (2 Bft) W-SW 247 0 min 0,0 UV-I 2,6 C 0,0 C 12,4 km/h (3 Bft)
17.02.2012 11:39 4,2 C 5,4 C 3,3 C 3,9 C 2,5 C 0,0 C 89 % 94 % 0 % 1019,7 hPa 0,0 l/m 9,3 km/h (2 Bft) W-SW 247 0 min 0,0 UV-I 2,6 C -0,2 C 7,1 km/h (2 Bft)
17.02.2012 11:44 4,2 C 5,4 C 3,3 C 3,9 C 2,6 C 0,0 C 89 % 94 % 0 % 1019,7 hPa 0,0 l/m 9,7 km/h (2 Bft) W-SW 247 0 min 0,0 UV-I 2,6 C -0,1 C 8,2 km/h (2 Bft)
17.02.2012 11:49 4,3 C 5,5 C 3,5 C 4,0 C 2,7 C 0,0 C 89 % 94 % 0 % 1019,7 hPa 0,0 l/m 8,9 km/h (2 Bft) W-SW 247 0 min 0,0 UV-I 2,7 C 0,2 C 12,2 km/h (2 Bft)
17.02.2012 11:54 4,2 C 5,4 C 3,4 C 3,7 C 2,7 C 0,0 C 89 % 94 % 0 % 1019,7 hPa 0,0 l/m 8,7 km/h (2 Bft) W-SW 247 0 min 0,0 UV-I 2,6 C 0,2 C 12,6 km/h (3 Bft)
17.02.2012 11:59 4,2 C 5,4 C 3,3 C 3,9 C 2,4 C 0,0 C 89 % 94 % 0 % 1019,7 hPa 0,0 l/m 9,8 km/h (2 Bft) O-NO 67 0 min 0,0 UV-I 2,6 C -0,4 C 13,5 km/h (3 Bft)
17.02.2012 12:04 4,2 C 5,5 C 3,5 C 3,9 C 2,5 C 0,0 C 89 % 94 % 0 % 1019,7 hPa 0,0 l/m 9,2 km/h (2 Bft) W-SW 247 0 min 0,0 UV-I 2,6 C -0,1 C 9,5 km/h (2 Bft)
17.02.2012 12:09 4,3 C 5,5 C 3,4 C 3,9 C 2,4 C 0,0 C 89 % 94 % 0 % 1019,7 hPa 0,0 l/m 9,0 km/h (2 Bft) W-SW 247 0 min 0,0 UV-I 2,7 C -0,2 C 7,1 km/h (2 Bft)
17.02.2012 12:14 4,3 C 5,5 C 3,5 C 3,9 C 2,3 C 0,0 C 89 % 94 % 0 % 1019,7 hPa 0,0 l/m 9,0 km/h (2 Bft) SW 225 0 min 0,0 UV-I 2,7 C -0,3 C 9,3 km/h (2 Bft)
17.02.2012 12:19 4,3 C 5,5 C 3,4 C 3,6 C 2,3 C 0,0 C 89 % 94 % 0 % 1020,0 hPa 0,0 l/m 9,0 km/h (2 Bft) SW 225 0 min 0,0 UV-I 2,7 C -0,3 C 8,2 km/h (2 Bft)
17.02.2012 12:24 4,3 C 5,5 C 3,5 C 3,9 C 2,2 C 0,0 C 89 % 94 % 0 % 1020,0 hPa 0,0 l/m 9,8 km/h (2 Bft) S-SW 202 0 min 0,0 UV-I 2,7 C -0,6 C 10,0 km/h (2 Bft)
17.02.2012 12:29 4,3 C 5,5 C 3,5 C 3,9 C 2,5 C 0,0 C 89 % 94 % 0 % 1020,0 hPa 0,0 l/m 9,2 km/h (2 Bft) SW 225 0 min 0,0 UV-I 2,7 C -0,1 C 5,5 km/h (1 Bft)
17.02.2012 12:34 4,3 C 5,5 C 3,5 C 3,8 C 2,9 C 0,0 C 89 % 94 % 0 % 1020,0 hPa 0,0 l/m 7,6 km/h (2 Bft) SW 225 0 min 0,0 UV-I 2,7 C 0,8 C 7,4 km/h (2 Bft)
17.02.2012 12:39 4,3 C 5,5 C 3,4 C 4,0 C 2,8 C 0,0 C 89 % 94 % 0 % 1020,2 hPa 0,0 l/m 8,2 km/h (2 Bft) W-SW 247 0 min 0,0 UV-I 2,7 C 0,5 C 6,4 km/h (2 Bft)
17.02.2012 12:44 4,4 C 5,5 C 3,5 C 4,1 C 2,7 C 0,0 C 89 % 94 % 0 % 1020,2 hPa 0,0 l/m 9,2 km/h (2 Bft) W-SW 247 0 min 0,0 UV-I 2,7 C 0,1 C 15,3 km/h (3 Bft)
17.02.2012 12:49 4,5 C 5,5 C 3,5 C 4,2 C 2,8 C 0,0 C 88 % 94 % 0 % 1020,2 hPa 0,0 l/m 9,0 km/h (2 Bft) W-NW 292 0 min 0,0 UV-I 2,7 C 0,3 C 11,9 km/h (2 Bft)
17.02.2012 12:54 4,5 C 5,5 C 3,5 C 3,9 C 2,8 C 0,0 C 88 % 94 % 0 % 1020,2 hPa 0,0 l/m 8,7 km/h (2 Bft) W-SW 247 0 min 0,0 UV-I 2,7 C 0,4 C 7,4 km/h (2 Bft)
17.02.2012 12:59 4,4 C 5,5 C 3,5 C 4,1 C 2,9 C 0,0 C 88 % 94 % 0 % 1020,2 hPa 0,0 l/m 8,4 km/h (2 Bft) W-SW 247 0 min 0,0 UV-I 2,6 C 0,6 C 7,7 km/h (2 Bft)
17.02.2012 13:04 4,4 C 5,5 C 3,6 C 4,1 C 3,0 C 0,0 C 88 % 94 % 0 % 1020,2 hPa 0,0 l/m 7,9 km/h (2 Bft) W-SW 247 0 min 0,0 UV-I 2,6 C 0,8 C 8,0 km/h (2 Bft)
17.02.2012 13:09 4,4 C 5,5 C 3,6 C 4,0 C 3,2 C 0,0 C 88 % 94 % 0 % 1020,2 hPa 0,0 l/m 7,4 km/h (2 Bft) W-SW 247 0 min 0,0 UV-I 2,6 C 1,2 C 6,3 km/h (2 Bft)
17.02.2012 13:14 4,5 C 5,5 C 3,6 C 4,2 C 3,6 C 0,0 C 88 % 94 % 0 % 1020,2 hPa 0,0 l/m 6,9 km/h (2 Bft) W-SW 247 0 min 0,0 UV-I 2,7 C 1,8 C 8,7 km/h (2 Bft)
17.02.2012 13:19 4,4 C 5,5 C 3,7 C 4,1 C 3,4 C 0,0 C 88 % 94 % 0 % 1020,6 hPa 0,0 l/m 7,4 km/h (2 Bft) W-SW 247 0 min 0,0 UV-I 2,6 C 1,4 C 6,0 km/h (2 Bft)
17.02.2012 13:24 4,5 C 5,5 C 3,7 C 4,1 C 3,4 C 0,0 C 88 % 94 % 0 % 1020,6 hPa 0,0 l/m 7,9 km/h (2 Bft) W-SW 247 0 min 0,0 UV-I 2,7 C 1,3 C 8,9 km/h (2 Bft)
17.02.2012 13:29 4,5 C 5,5 C 3,7 C 4,2 C 3,7 C 0,0 C 88 % 94 % 0 % 1020,6 hPa 0,0 l/m 6,9 km/h (2 Bft) W-SW 247 0 min 0,0 UV-I 2,7 C 1,9 C 7,2 km/h (2 Bft)
17.02.2012 13:34 4,6 C 5,5 C 3,9 C 4,5 C 4,2 C 0,0 C 88 % 94 % 0 % 1020,6 hPa 0,0 l/m 5,5 km/h (1 Bft) W-SW 247 0 min 0,0 UV-I 2,8 C 3,0 C 5,5 km/h (1 Bft)
17.02.2012 13:39 4,7 C 5,5 C 3,9 C 4,5 C 4,2 C 0,0 C 88 % 94 % 0 % 1020,6 hPa 0,0 l/m 6,0 km/h (2 Bft) W-SW 247 0 min 0,0 UV-I 2,9 C 2,8 C 4,5 km/h (1 Bft)
17.02.2012 13:44 4,6 C 5,5 C 3,8 C 4,4 C 3,9 C 0,0 C 88 % 94 % 0 % 1020,6 hPa 0,0 l/m 6,6 km/h (2 Bft) W-SW 247 0 min 0,0 UV-I 2,8 C 2,3 C 7,9 km/h (2 Bft)
17.02.2012 13:49 4,7 C 5,5 C 3,9 C 4,4 C 3,9 C 0,0 C 88 % 94 % 0 % 1020,6 hPa 0,0 l/m 6,9 km/h (2 Bft) W-SW 247 0 min 0,0 UV-I 2,9 C 2,2 C 9,5 km/h (2 Bft)
17.02.2012 13:54 4,7 C 5,5 C 3,9 C 4,4 C 3,7 C 0,0 C 88 % 94 % 0 % 1020,6 hPa 0,0 l/m 7,2 km/h (2 Bft) SW 225 0 min 0,0 UV-I 2,9 C 1,8 C 7,4 km/h (2 Bft)
17.02.2012 13:59 4,7 C 5,5 C 3,9 C 4,4 C 3,8 C 0,0 C 88 % 94 % 0 % 1020,6 hPa 0,0 l/m 6,6 km/h (2 Bft) W-SW 247 0 min 0,0 UV-I 2,9 C 2,1 C 6,1 km/h (2 Bft)
17.02.2012 14:04 4,7 C 5,5 C 3,9 C 4,5 C 4,1 C 0,0 C 88 % 94 % 0 % 1020,6 hPa 0,0 l/m 5,8 km/h (2 Bft) SW 225 0 min 0,0 UV-I 2,9 C 2,8 C 7,2 km/h (2 Bft)
17.02.2012 14:09 4,7 C 5,5 C 3,9 C 4,5 C 4,2 C 0,0 C 88 % 94 % 0 % 1020,6 hPa 0,0 l/m 6,0 km/h (2 Bft) SW 225 0 min 0,0 UV-I 2,9 C 2,8 C 7,1 km/h (2 Bft)
17.02.2012 14:14 4,7 C 5,5 C 4,1 C 4,5 C 4,2 C 0,0 C 88 % 94 % 0 % 1020,6 hPa 0,0 l/m 5,8 km/h (2 Bft) W 270 0 min 0,0 UV-I 2,9 C 2,9 C 6,9 km/h (2 Bft)
17.02.2012 14:19 4,7 C 5,5 C 4,0 C 4,5 C 4,2 C 0,0 C 88 % 94 % 0 % 1020,2 hPa 0,0 l/m 6,0 km/h (2 Bft) W-SW 247 0 min 0,0 UV-I 2,9 C 2,8 C 6,6 km/h (2 Bft)
17.02.2012 14:24 4,8 C 5,5 C 4,0 C 4,5 C 3,9 C 0,0 C 88 % 94 % 0 % 1020,2 hPa 0,0 l/m 6,4 km/h (2 Bft) SW 225 0 min 0,0 UV-I 3,0 C 2,3 C 10,6 km/h (2 Bft)
17.02.2012 14:29 4,7 C 5,5 C 4,1 C 4,4 C 3,9 C 0,0 C 88 % 94 % 0 % 1020,2 hPa 0,0 l/m 6,3 km/h (2 Bft) W-SW 247 0 min 0,0 UV-I 2,9 C 2,4 C 4,5 km/h (1 Bft)
17.02.2012 14:34 4,8 C 5,5 C 4,0 C 4,5 C 3,8 C 0,0 C 88 % 94 % 0 % 1020,2 hPa 0,0 l/m 6,6 km/h (2 Bft) W 270 0 min 0,0 UV-I 3,0 C 2,1 C 4,8 km/h (1 Bft)
17.02.2012 14:39 4,8 C 5,5 C 4,0 C 4,6 C 4,1 C 0,0 C 88 % 94 % 0 % 1020,2 hPa 0,0 l/m 5,8 km/h (2 Bft) W-SW 247 0 min 0,0 UV-I 3,0 C 2,8 C 5,3 km/h (1 Bft)
17.02.2012 14:44 4,7 C 5,5 C 4,0 C 4,6 C 4,5 C 0,0 C 88 % 94 % 0 % 1020,2 hPa 0,0 l/m 4,5 km/h (1 Bft) SW 225 0 min 0,0 UV-I 2,9 C 4,5 C 5,1 km/h (1 Bft)
17.02.2012 14:49 4,7 C 5,5 C 4,0 C 4,5 C 4,2 C 0,0 C 88 % 94 % 0 % 1020,2 hPa 0,0 l/m 5,5 km/h (1 Bft) W-SW 247 0 min 0,0 UV-I 2,9 C 3,0 C 7,7 km/h (2 Bft)
17.02.2012 14:54 4,7 C 5,5 C 4,0 C 4,4 C 3,9 C 0,0 C 88 % 94 % 0 % 1020,2 hPa 0,0 l/m 6,3 km/h (2 Bft) SW 225 0 min 0,0 UV-I 2,9 C 2,4 C 6,0 km/h (2 Bft)
17.02.2012 14:59 4,7 C 5,5 C 4,0 C 4,4 C 3,9 C 0,0 C 88 % 94 % 0 % 1020,3 hPa 0,0 l/m 6,1 km/h (2 Bft) W-SW 247 0 min 0,0 UV-I 2,9 C 2,4 C 8,4 km/h (2 Bft)
17.02.2012 15:04 4,7 C 5,5 C 4,0 C 4,4 C 3,8 C 0,0 C 88 % 94 % 0 % 1020,3 hPa 0,0 l/m 6,4 km/h (2 Bft) W-SW 247 0 min 0,0 UV-I 2,9 C 2,2 C 6,3 km/h (2 Bft)
17.02.2012 15:09 4,7 C 5,5 C 4,0 C 4,3 C 3,6 C 0,0 C 88 % 94 % 0 % 1020,3 hPa 0,0 l/m 7,6 km/h (2 Bft) W-SW 247 0 min 0,0 UV-I 2,9 C 1,6 C 13,2 km/h (3 Bft)
17.02.2012 15:14 4,7 C 5,5 C 4,0 C 4,5 C 3,4 C 0,0 C 88 % 94 % 0 % 1020,3 hPa 0,0 l/m 7,9 km/h (2 Bft) W 270 0 min 0,0 UV-I 2,9 C 1,3 C 6,9 km/h (2 Bft)
17.02.2012 15:19 4,7 C 5,5 C 4,0 C 4,3 C 3,5 C 0,0 C 88 % 94 % 0 % 1020,4 hPa 0,0 l/m 7,6 km/h (2 Bft) W-SW 247 0 min 0,0 UV-I 2,9 C 1,5 C 9,7 km/h (2 Bft)
17.02.2012 15:24 4,6 C 5,6 C 4,0 C 4,4 C 3,2 C 0,0 C 88 % 94 % 0 % 1020,4 hPa 0,0 l/m 8,0 km/h (2 Bft) W 270 0 min 0,0 UV-I 2,8 C 1,0 C 7,2 km/h (2 Bft)
17.02.2012 15:29 4,7 C 5,6 C 4,0 C 4,2 C 3,2 C 0,0 C 88 % 94 % 0 % 1020,4 hPa 0,0 l/m 8,0 km/h (2 Bft) SW 225 0 min 0,0 UV-I 2,9 C 1,0 C 10,3 km/h (2 Bft)
17.02.2012 15:34 4,7 C 5,6 C 4,0 C 4,2 C 3,3 C 0,0 C 89 % 94 % 0 % 1020,4 hPa 0,0 l/m 7,6 km/h (2 Bft) W-SW 247 0 min 0,0 UV-I 3,0 C 1,3 C 7,9 km/h (2 Bft)
17.02.2012 15:39 4,7 C 5,7 C 4,0 C 4,2 C 3,3 C 0,0 C 89 % 94 % 0 % 1020,4 hPa 0,0 l/m 7,4 km/h (2 Bft) W-SW 247 0 min 0,0 UV-I 3,0 C 1,3 C 9,2 km/h (2 Bft)
17.02.2012 15:44 4,5 C 5,7 C 4,0 C 4,1 C 3,3 C 0,0 C 89 % 94 % 0 % 1020,4 hPa 0,0 l/m 7,9 km/h (2 Bft) SW 225 0 min 0,0 UV-I 2,8 C 1,2 C 12,9 km/h (3 Bft)
17.02.2012 15:49 4,5 C 5,6 C 4,0 C 4,3 C 3,2 C 0,0 C 89 % 94 % 0 % 1020,4 hPa 0,0 l/m 7,7 km/h (2 Bft) W-SW 247 0 min 0,0 UV-I 2,8 C 1,1 C 3,7 km/h (1 Bft)
17.02.2012 15:55 4,5 C 5,7 C 3,9 C 4,1 C 3,2 C 0,0 C 89 % 94 % 0 % 1020,4 hPa 0,0 l/m 6,8 km/h (2 Bft) SW 225 0 min 0,0 UV-I 2,8 C 1,4 C 5,1 km/h (1 Bft)
17.02.2012 16:00 4,5 C 5,7 C 3,8 C 4,2 C 3,5 C 0,0 C 89 % 94 % 0 % 1020,6 hPa 0,0 l/m 5,8 km/h (2 Bft) W 270 0 min 0,0 UV-I 2,8 C 2,1 C 6,4 km/h (2 Bft)
17.02.2012 16:05 4,5 C 5,7 C 3,9 C 4,3 C 3,9 C 0,0 C 89 % 94 % 0 % 1020,6 hPa 0,0 l/m 4,8 km/h (1 Bft) W-SW 247 0 min 0,0 UV-I 2,8 C 2,9 C 5,6 km/h (1 Bft)
17.02.2012 16:17 4,4 C 5,7 C 3,8 C 4,2 C 3,7 C 0,0 C 89 % 94 % 0 % 1020,6 hPa 0,0 l/m 5,1 km/h (1 Bft) N 0 0 min 0,0 UV-I 2,7 C 2,6 C 7,7 km/h (2 Bft)
17.02.2012 16:25 4,5 C 5,7 C 3,9 C 4,1 C 3,4 C 0,0 C 89 % 94 % 0 % 1020,6 hPa 0,0 l/m 5,5 km/h (1 Bft) W-SW 247 0 min 0,0 UV-I 2,8 C 2,1 C 6,4 km/h (2 Bft)
17.02.2012 16:30 4,5 C 5,7 C 3,8 C 4,2 C 3,6 C 0,0 C 89 % 94 % 0 % 1020,6 hPa 0,0 l/m 5,1 km/h (1 Bft) SW 225 0 min 0,0 UV-I 2,8 C 2,5 C 6,8 km/h (2 Bft)
17.02.2012 16:35 4,5 C 5,7 C 3,8 C 4,2 C 3,6 C 0,0 C 89 % 94 % 0 % 1020,6 hPa 0,0 l/m 5,1 km/h (1 Bft) SW 225 0 min 0,0 UV-I 2,8 C 2,5 C 6,3 km/h (2 Bft)
17.02.2012 16:40 4,4 C 5,7 C 3,9 C 4,2 C 3,7 C 0,0 C 89 % 94 % 0 % 1020,6 hPa 0,0 l/m 5,3 km/h (1 Bft) W 270 0 min 0,0 UV-I 2,7 C 2,5 C 9,3 km/h (2 Bft)
17.02.2012 16:45 4,5 C 5,7 C 3,8 C 4,2 C 3,5 C 0,0 C 89 % 94 % 0 % 1020,6 hPa 0,0 l/m 5,6 km/h (1 Bft) W-SW 247 0 min 0,0 UV-I 2,8 C 2,1 C 7,9 km/h (2 Bft)
17.02.2012 16:50 4,4 C 5,7 C 3,8 C 4,1 C 3,4 C 0,0 C 89 % 94 % 0 % 1020,6 hPa 0,0 l/m 5,8 km/h (2 Bft) W-SW 247 0 min 0,0 UV-I 2,7 C 2,0 C 5,5 km/h (1 Bft)
17.02.2012 16:55 4,3 C 5,7 C 3,7 C 4,0 C 3,4 C 0,0 C 89 % 94 % 0 % 1020,6 hPa 0,0 l/m 5,1 km/h (1 Bft) W-SW 247 0 min 0,0 UV-I 2,7 C 2,2 C 5,3 km/h (1 Bft)
17.02.2012 17:00 4,3 C 5,7 C 3,7 C 4,1 C 3,6 C 0,0 C 89 % 94 % 0 % 1020,6 hPa 0,0 l/m 4,2 km/h (1 Bft) W-SW 247 0 min 0,0 UV-I 2,7 C 3,6 C 3,5 km/h (1 Bft)
17.02.2012 17:11 4,3 C 5,7 C 3,6 C 4,1 C 3,7 C 0,0 C 89 % 94 % 0 % 1020,6 hPa 0,0 l/m 3,7 km/h (1 Bft) N 0 0 min 0,0 UV-I 2,7 C 3,7 C 3,7 km/h (1 Bft)
17.02.2012 17:20 4,1 C 5,9 C 3,6 C 4,0 C 3,9 C 0,0 C 90 % 94 % 0 % 1020,6 hPa 0,0 l/m 3,1 km/h (1 Bft) W-SW 247 0 min 0,0 UV-I 2,6 C 3,9 C 2,1 km/h (1 Bft)
17.02.2012 17:25 4,1 C 5,9 C 3,5 C 4,0 C 3,9 C 0,0 C 90 % 94 % 0 % 1020,6 hPa 0,0 l/m 2,6 km/h (1 Bft) W-SW 247 0 min 0,0 UV-I 2,6 C 3,9 C 0,0 km/h (0 Bft)
17.02.2012 17:30 4,0 C 5,9 C 3,5 C 3,9 C 3,7 C 0,0 C 90 % 94 % 0 % 1020,6 hPa 0,0 l/m 2,6 km/h (1 Bft) W-SW 247 0 min 0,0 UV-I 2,5 C 3,7 C 4,5 km/h (1 Bft)
17.02.2012 17:35 4,1 C 5,9 C 3,4 C 3,9 C 3,5 C 0,0 C 90 % 94 % 0 % 1020,6 hPa 0,0 l/m 3,2 km/h (1 Bft) W-NW 292 0 min 0,0 UV-I 2,6 C 3,5 C 4,0 km/h (1 Bft)
17.02.2012 17:40 4,1 C 5,9 C 3,5 C 3,8 C 3,1 C 0,0 C 90 % 94 % 0 % 1020,8 hPa 0,0 l/m 3,7 km/h (1 Bft) W-SW 247 0 min 0,0 UV-I 2,6 C 3,1 C 4,2 km/h (1 Bft)
17.02.2012 17:45 4,0 C 5,9 C 3,5 C 3,6 C 2,9 C 0,0 C 90 % 94 % 0 % 1020,8 hPa 0,0 l/m 4,0 km/h (1 Bft) W-SW 247 0 min 0,0 UV-I 2,5 C 2,9 C 4,8 km/h (1 Bft)
17.02.2012 17:50 3,9 C 5,9 C 3,5 C 3,5 C 2,8 C 0,0 C 90 % 94 % 0 % 1020,8 hPa 0,0 l/m 4,3 km/h (1 Bft) W-SW 247 0 min 0,0 UV-I 2,4 C 2,8 C 3,2 km/h (1 Bft)
17.02.2012 17:55 3,9 C 5,9 C 3,5 C 3,6 C 2,9 C 0,0 C 90 % 94 % 0 % 1020,8 hPa 0,0 l/m 4,3 km/h (1 Bft) W-SW 247 0 min 0,0 UV-I 2,4 C 2,9 C 3,1 km/h (1 Bft)
17.02.2012 18:00 3,9 C 5,9 C 3,5 C 3,7 C 3,2 C 0,0 C 90 % 94 % 0 % 1020,9 hPa 0,0 l/m 3,7 km/h (1 Bft) W-SW 247 0 min 0,0 UV-I 2,4 C 3,2 C 3,2 km/h (1 Bft)
17.02.2012 18:11 4,0 C 5,9 C 3,5 C 3,7 C 3,1 C 0,0 C 90 % 94 % 0 % 1020,9 hPa 0,0 l/m 4,3 km/h (1 Bft) N 0 0 min 0,0 UV-I 2,5 C 3,1 C 5,5 km/h (1 Bft)
17.02.2012 18:20 3,9 C 5,9 C 3,3 C 3,7 C 3,2 C 0,0 C 90 % 94 % 0 % 1021,2 hPa 0,0 l/m 3,9 km/h (1 Bft) W 270 0 min 0,0 UV-I 2,4 C 3,2 C 3,2 km/h (1 Bft)
17.02.2012 18:25 4,0 C 5,9 C 3,3 C 3,8 C 3,4 C 0,0 C 90 % 94 % 0 % 1021,2 hPa 0,0 l/m 3,5 km/h (1 Bft) W-SW 247 0 min 0,0 UV-I 2,5 C 3,4 C 3,9 km/h (1 Bft)
17.02.2012 18:30 3,9 C 5,9 C 3,4 C 3,7 C 3,4 C 0,0 C 90 % 94 % 0 % 1021,2 hPa 0,0 l/m 3,4 km/h (1 Bft) W-SW 247 0 min 0,0 UV-I 2,4 C 3,4 C 4,5 km/h (1 Bft)
17.02.2012 18:35 3,9 C 5,9 C 3,3 C 3,8 C 3,6 C 0,0 C 90 % 94 % 0 % 1021,2 hPa 0,0 l/m 2,6 km/h (1 Bft) NW 315 0 min 0,0 UV-I 2,4 C 3,6 C 2,7 km/h (1 Bft)
17.02.2012 18:40 3,9 C 5,9 C 3,3 C 3,8 C 3,6 C 0,0 C 90 % 94 % 0 % 1021,7 hPa 0,0 l/m 2,4 km/h (1 Bft) W-SW 247 0 min 0,0 UV-I 2,4 C 3,6 C 5,8 km/h (2 Bft)
17.02.2012 18:45 3,9 C 5,9 C 3,2 C 3,8 C 3,6 C 0,0 C 90 % 94 % 0 % 1021,7 hPa 0,0 l/m 1,8 km/h (1 Bft) W-SW 247 0 min 0,0 UV-I 2,4 C 3,6 C 2,1 km/h (1 Bft)
17.02.2012 18:50 3,8 C 5,9 C 3,3 C 3,7 C 3,5 C 0,0 C 90 % 94 % 0 % 1021,7 hPa 0,0 l/m 1,8 km/h (1 Bft) W-SW 247 0 min 0,0 UV-I 2,3 C 3,5 C 8,2 km/h (2 Bft)
17.02.2012 18:55 3,8 C 5,8 C 3,3 C 3,7 C 3,6 C 0,0 C 90 % 94 % 0 % 1021,7 hPa 0,0 l/m 2,3 km/h (1 Bft) W-SW 247 0 min 0,0 UV-I 2,3 C 3,6 C 3,2 km/h (1 Bft)
17.02.2012 19:00 3,9 C 5,9 C 3,2 C 3,8 C 3,6 C 0,0 C 90 % 94 % 0 % 1021,7 hPa 0,0 l/m 2,6 km/h (1 Bft) W-SW 247 0 min 0,0 UV-I 2,4 C 3,6 C 3,7 km/h (1 Bft)
17.02.2012 19:11 3,9 C 5,9 C 3,2 C 3,8 C 3,6 C 0,0 C 90 % 94 % 0 % 1021,7 hPa 0,0 l/m 2,7 km/h (1 Bft) N 0 0 min 0,0 UV-I 2,4 C 3,6 C 5,0 km/h (1 Bft)
17.02.2012 19:20 3,9 C 5,9 C 3,3 C 3,6 C 3,1 C 0,0 C 90 % 94 % 0 % 1021,7 hPa 0,0 l/m 3,7 km/h (1 Bft) W-SW 247 0 min 0,0 UV-I 2,4 C 3,1 C 4,7 km/h (1 Bft)
17.02.2012 19:25 3,9 C 5,9 C 3,2 C 3,6 C 2,9 C 0,0 C 90 % 94 % 0 % 1021,7 hPa 0,0 l/m 3,9 km/h (1 Bft) SW 225 0 min 0,0 UV-I 2,4 C 2,9 C 3,5 km/h (1 Bft)
17.02.2012 19:30 3,8 C 5,9 C 3,2 C 3,5 C 3,0 C 0,0 C 90 % 94 % 0 % 1021,7 hPa 0,0 l/m 3,7 km/h (1 Bft) W-SW 247 0 min 0,0 UV-I 2,3 C 3,0 C 2,9 km/h (1 Bft)
17.02.2012 19:35 3,7 C 5,9 C 3,2 C 3,5 C 3,2 C 0,0 C 90 % 94 % 0 % 1021,7 hPa 0,0 l/m 3,4 km/h (1 Bft) W-SW 247 0 min 0,0 UV-I 2,2 C 3,2 C 3,4 km/h (1 Bft)
17.02.2012 19:40 3,7 C 5,9 C 3,3 C 3,5 C 3,2 C 0,0 C 90 % 94 % 0 % 1022,0 hPa 0,0 l/m 3,4 km/h (1 Bft) S-SW 202 0 min 0,0 UV-I 2,2 C 3,2 C 3,1 km/h (1 Bft)
17.02.2012 19:45 3,8 C 5,9 C 3,2 C 3,5 C 3,0 C 0,0 C 90 % 94 % 0 % 1022,0 hPa 0,0 l/m 3,7 km/h (1 Bft) W-SW 247 0 min 0,0 UV-I 2,3 C 3,0 C 4,5 km/h (1 Bft)
17.02.2012 19:50 3,9 C 5,9 C 3,3 C 3,6 C 3,1 C 0,0 C 90 % 94 % 0 % 1022,0 hPa 0,0 l/m 3,7 km/h (1 Bft) W-SW 247 0 min 0,0 UV-I 2,4 C 3,1 C 2,1 km/h (1 Bft)
17.02.2012 19:55 3,7 C 5,9 C 3,2 C 3,6 C 3,3 C 0,0 C 90 % 94 % 0 % 1022,0 hPa 0,0 l/m 3,4 km/h (1 Bft) W-SW 247 0 min 0,0 UV-I 2,2 C 3,3 C 3,1 km/h (1 Bft)
17.02.2012 20:00 3,7 C 5,9 C 3,2 C 3,6 C 3,4 C 0,0 C 90 % 94 % 0 % 1022,0 hPa 0,0 l/m 2,9 km/h (1 Bft) W-SW 247 0 min 0,0 UV-I 2,2 C 3,4 C 5,1 km/h (1 Bft)
17.02.2012 20:11 3,7 C 5,9 C 3,2 C 3,6 C 3,4 C 0,0 C 90 % 94 % 0 % 1022,0 hPa 0,0 l/m 2,9 km/h (1 Bft) N 0 0 min 0,0 UV-I 2,2 C 3,4 C 4,7 km/h (1 Bft)
17.02.2012 20:20 3,6 C 5,9 C 3,1 C 3,6 C 3,5 C 0,0 C 90 % 94 % 0 % 1022,1 hPa 0,0 l/m 2,7 km/h (1 Bft) W-SW 247 0 min 0,0 UV-I 2,1 C 3,5 C 4,7 km/h (1 Bft)
17.02.2012 20:25 3,6 C 5,9 C 3,0 C 3,4 C 3,1 C 0,0 C 90 % 94 % 0 % 1022,1 hPa 0,0 l/m 3,2 km/h (1 Bft) SW 225 0 min 0,0 UV-I 2,1 C 3,1 C 2,6 km/h (1 Bft)
17.02.2012 20:30 3,7 C 5,9 C 3,1 C 3,4 C 2,9 C 0,0 C 90 % 94 % 0 % 1022,1 hPa 0,0 l/m 3,5 km/h (1 Bft) W-SW 247 0 min 0,0 UV-I 2,2 C 2,9 C 3,9 km/h (1 Bft)
17.02.2012 20:35 3,6 C 5,9 C 3,1 C 3,4 C 2,9 C 0,0 C 90 % 94 % 0 % 1022,1 hPa 0,0 l/m 3,7 km/h (1 Bft) W-SW 247 0 min 0,0 UV-I 2,1 C 2,9 C 5,0 km/h (1 Bft)
17.02.2012 20:40 3,6 C 5,9 C 3,1 C 3,4 C 2,9 C 0,0 C 90 % 94 % 0 % 1022,0 hPa 0,0 l/m 3,5 km/h (1 Bft) W-SW 247 0 min 0,0 UV-I 2,1 C 2,9 C 2,4 km/h (1 Bft)
17.02.2012 20:45 3,5 C 5,9 C 3,1 C 3,4 C 3,1 C 0,0 C 90 % 94 % 0 % 1022,0 hPa 0,0 l/m 3,1 km/h (1 Bft) SW 225 0 min 0,0 UV-I 2,0 C 3,1 C 4,3 km/h (1 Bft)
17.02.2012 20:50 3,5 C 6,0 C 3,0 C 3,4 C 3,3 C 0,0 C 90 % 94 % 0 % 1022,0 hPa 0,0 l/m 2,6 km/h (1 Bft) W-SW 247 0 min 0,0 UV-I 2,0 C 3,3 C 1,6 km/h (1 Bft)
17.02.2012 20:55 3,4 C 6,0 C 2,9 C 3,3 C 3,2 C 0,0 C 90 % 94 % 0 % 1022,0 hPa 0,0 l/m 2,3 km/h (1 Bft) W-SW 247 0 min 0,0 UV-I 1,9 C 3,2 C 3,1 km/h (1 Bft)
17.02.2012 21:00 3,4 C 5,9 C 2,9 C 3,3 C 3,2 C 0,0 C 90 % 94 % 0 % 1022,0 hPa 0,0 l/m 2,6 km/h (1 Bft) SW 225 0 min 0,0 UV-I 1,9 C 3,2 C 3,9 km/h (1 Bft)
17.02.2012 21:05 3,4 C 6,0 C 2,9 C 3,3 C 3,0 C 0,0 C 90 % 94 % 0 % 1022,0 hPa 0,0 l/m 3,1 km/h (1 Bft) SW 225 0 min 0,0 UV-I 1,9 C 3,0 C 2,9 km/h (1 Bft)
17.02.2012 21:10 3,5 C 6,0 C 2,8 C 3,3 C 3,0 C 0,0 C 90 % 94 % 0 % 1022,0 hPa 0,0 l/m 1,9 km/h (1 Bft) S-SW 202 0 min 0,0 UV-I 2,0 C 3,0 C 0,0 km/h (0 Bft)
17.02.2012 21:15 3,3 C 6,0 C 2,7 C 3,1 C 2,8 C 0,0 C 90 % 94 % 0 % 1022,0 hPa 0,0 l/m 0,3 km/h (0 Bft) W-SW 247 0 min 0,0 UV-I 1,8 C 2,8 C 2,4 km/h (1 Bft)
17.02.2012 21:20 3,2 C 6,0 C 2,5 C 3,0 C 2,7 C 0,0 C 90 % 94 % 0 % 1022,2 hPa 0,0 l/m 0,2 km/h (0 Bft) W 270 0 min 0,0 UV-I 1,7 C 2,7 C 0,0 km/h (0 Bft)
17.02.2012 21:25 3,1 C 6,0 C 2,4 C 2,9 C 2,6 C 0,0 C 90 % 94 % 0 % 1022,2 hPa 0,0 l/m 0,2 km/h (0 Bft) W 270 0 min 0,0 UV-I 1,6 C 2,6 C 0,0 km/h (0 Bft)
17.02.2012 21:30 3,1 C 6,0 C 2,3 C 2,9 C 2,5 C 0,0 C 90 % 94 % 0 % 1022,2 hPa 0,0 l/m 0,0 km/h (0 Bft) W 270 0 min 0,0 UV-I 1,6 C 2,5 C 0,0 km/h (0 Bft)
17.02.2012 21:35 3,0 C 6,0 C 2,1 C 2,8 C 2,4 C 0,0 C 90 % 94 % 0 % 1022,2 hPa 0,0 l/m 0,2 km/h (0 Bft) N-NW 337 0 min 0,0 UV-I 1,5 C 2,4 C 0,0 km/h (0 Bft)
17.02.2012 21:40 2,9 C 6,0 C 2,1 C 2,7 C 2,3 C 0,0 C 90 % 94 % 0 % 1022,1 hPa 0,0 l/m 0,3 km/h (0 Bft) S 180 0 min 0,0 UV-I 1,4 C 2,3 C 1,9 km/h (1 Bft)
17.02.2012 21:45 2,8 C 6,0 C 2,3 C 2,6 C 2,3 C 0,0 C 90 % 94 % 0 % 1022,1 hPa 0,0 l/m 1,6 km/h (1 Bft) S-SO 157 0 min 0,0 UV-I 1,3 C 2,3 C 4,3 km/h (1 Bft)
17.02.2012 21:50 2,8 C 6,0 C 2,2 C 2,6 C 2,3 C 0,0 C 90 % 94 % 0 % 1022,1 hPa 0,0 l/m 1,9 km/h (1 Bft) SW 225 0 min 0,0 UV-I 1,3 C 2,3 C 2,9 km/h (1 Bft)
17.02.2012 21:55 2,8 C 5,9 C 2,3 C 2,6 C 2,3 C 0,0 C 90 % 94 % 0 % 1022,1 hPa 0,0 l/m 1,6 km/h (1 Bft) SW 225 0 min 0,0 UV-I 1,3 C 2,3 C 2,1 km/h (1 Bft)
17.02.2012 22:00 2,8 C 5,9 C 2,2 C 2,6 C 2,3 C 0,0 C 90 % 94 % 0 % 1022,2 hPa 0,0 l/m 2,1 km/h (1 Bft) SW 225 0 min 0,0 UV-I 1,3 C 2,3 C 3,1 km/h (1 Bft)
17.02.2012 22:11 2,7 C 5,9 C 2,2 C 2,6 C 2,3 C 0,0 C 90 % 94 % 0 % 1022,2 hPa 0,0 l/m 1,9 km/h (1 Bft) N 0 0 min 0,0 UV-I 1,2 C 2,3 C 0,0 km/h (0 Bft)
17.02.2012 22:20 2,6 C 5,9 C 2,2 C 2,5 C 2,2 C 0,0 C 90 % 94 % 0 % 1022,2 hPa 0,0 l/m 1,6 km/h (1 Bft) W-SW 247 0 min 0,0 UV-I 1,1 C 2,2 C 3,2 km/h (1 Bft)
17.02.2012 22:25 2,7 C 5,8 C 2,3 C 2,5 C 2,1 C 0,0 C 90 % 94 % 0 % 1022,2 hPa 0,0 l/m 2,9 km/h (1 Bft) SW 225 0 min 0,0 UV-I 1,2 C 2,1 C 1,9 km/h (1 Bft)
17.02.2012 22:30 2,6 C 5,9 C 2,3 C 2,5 C 2,2 C 0,0 C 90 % 94 % 0 % 1022,2 hPa 0,0 l/m 2,4 km/h (1 Bft) W-SW 247 0 min 0,0 UV-I 1,1 C 2,2 C 1,9 km/h (1 Bft)
17.02.2012 22:35 2,7 C 5,9 C 2,1 C 2,5 C 2,1 C 0,0 C 90 % 94 % 0 % 1022,2 hPa 0,0 l/m 1,3 km/h (1 Bft) W-NW 292 0 min 0,0 UV-I 1,2 C 2,1 C 2,9 km/h (1 Bft)
17.02.2012 22:40 2,7 C 5,8 C 2,3 C 2,5 C 2,1 C 0,0 C 90 % 94 % 0 % 1021,9 hPa 0,0 l/m 1,9 km/h (1 Bft) W-SW 247 0 min 0,0 UV-I 1,2 C 2,1 C 5,0 km/h (1 Bft)
17.02.2012 22:45 2,7 C 5,8 C 2,3 C 2,4 C 1,7 C 0,0 C 89 % 94 % 0 % 1021,9 hPa 0,0 l/m 3,5 km/h (1 Bft) W-SW 247 0 min 0,0 UV-I 1,1 C 1,7 C 4,0 km/h (1 Bft)
17.02.2012 22:50 2,7 C 5,8 C 2,3 C 2,3 C 1,6 C 0,0 C 89 % 94 % 0 % 1021,9 hPa 0,0 l/m 3,7 km/h (1 Bft) SW 225 0 min 0,0 UV-I 1,1 C 1,6 C 4,0 km/h (1 Bft)
17.02.2012 22:55 2,8 C 5,7 C 2,3 C 2,5 C 1,8 C 0,0 C 89 % 94 % 0 % 1021,9 hPa 0,0 l/m 3,4 km/h (1 Bft) SW 225 0 min 0,0 UV-I 1,2 C 1,8 C 3,7 km/h (1 Bft)
17.02.2012 23:00 2,8 C 5,7 C 2,3 C 2,4 C 1,6 C 0,0 C 89 % 94 % 0 % 1021,9 hPa 0,0 l/m 3,7 km/h (1 Bft) W-SW 247 0 min 0,0 UV-I 1,2 C 1,6 C 8,5 km/h (2 Bft)
17.02.2012 23:12 2,8 C 5,7 C 2,3 C 2,4 C 1,5 C 0,0 C 88 % 93 % 0 % 1021,9 hPa 0,0 l/m 4,2 km/h (1 Bft) N 0 0 min 0,0 UV-I 1,0 C 1,5 C 5,3 km/h (1 Bft)
17.02.2012 23:20 2,8 C 5,7 C 2,3 C 2,4 C 1,7 C 0,0 C 88 % 93 % 0 % 1021,9 hPa 0,0 l/m 3,9 km/h (1 Bft) W-SW 247 0 min 0,0 UV-I 1,0 C 1,7 C 3,2 km/h (1 Bft)
17.02.2012 23:25 2,7 C 5,7 C 2,3 C 2,6 C 2,3 C 0,0 C 87 % 93 % 0 % 1021,9 hPa 0,0 l/m 2,7 km/h (1 Bft) W-SW 247 0 min 0,0 UV-I 0,8 C 2,3 C 4,7 km/h (1 Bft)
17.02.2012 23:30 2,7 C 5,7 C 2,3 C 2,5 C 2,1 C 0,0 C 87 % 93 % 0 % 1021,9 hPa 0,0 l/m 2,9 km/h (1 Bft) W-SW 247 0 min 0,0 UV-I 0,8 C 2,1 C 2,7 km/h (1 Bft)
17.02.2012 23:35 2,7 C 5,7 C 2,2 C 2,5 C 2,2 C 0,0 C 87 % 93 % 0 % 1021,9 hPa 0,0 l/m 2,7 km/h (1 Bft) W-SW 247 0 min 0,0 UV-I 0,8 C 2,2 C 2,1 km/h (1 Bft)
17.02.2012 23:40 2,7 C 5,7 C 2,2 C 2,6 C 2,3 C 0,0 C 87 % 93 % 0 % 1022,6 hPa 0,0 l/m 1,4 km/h (1 Bft) W-SW 247 0 min 0,0 UV-I 0,8 C 2,3 C 0,0 km/h (0 Bft)
17.02.2012 23:45 2,5 C 5,8 C 1,9 C 2,4 C 2,1 C 0,0 C 87 % 93 % 0 % 1022,6 hPa 0,0 l/m 0,3 km/h (0 Bft) S-SO 157 0 min 0,0 UV-I 0,6 C 2,1 C 0,0 km/h (0 Bft)
17.02.2012 23:50 2,4 C 5,8 C 1,9 C 2,3 C 2,0 C 0,0 C 87 % 93 % 0 % 1022,6 hPa 0,0 l/m 0,3 km/h (0 Bft) W-SW 247 0 min 0,0 UV-I 0,5 C 2,0 C 1,8 km/h (1 Bft)
17.02.2012 23:55 2,4 C 5,8 C 1,8 C 2,3 C 2,0 C 0,0 C 88 % 93 % 0 % 1022,6 hPa 0,0 l/m 0,8 km/h (0 Bft) W-SW 247 0 min 0,0 UV-I 0,6 C 2,0 C 0,0 km/h (0 Bft)
_ Min-Zeit 00:00 00:00 00:09 02:55 02:35 00:00 23:25 00:00 00:00 06:59 - 21:30 - - - 00:00 00:00 02:35 17:25
Minimum _ 0,9 C 2,8 C 0,6 C -0,3 C -3,4 C 0,0 C 87 % 93 % 0 % 1018,7 hPa - 0,0 km/h (0 Bft) - - - 0,0 UV-I -0,4 C -8,5 C 0,0 km/h (0 Bft)
_ Max-Zeit 14:24 20:50 14:14 14:39 14:44 00:00 01:09 09:44 00:00 23:40 00:25 02:35 - - 00:00 00:00 15:34 14:44 02:25
Maximum _ 4,8 C 6,0 C 4,1 C 4,6 C 4,5 C 0,0 C 92 % 95 % 0 % 1022,6 hPa 0,7 l/m 14,5 km/h
W (3 Bft)
- - 0 min 0,0 UV-I 3,0 C 4,5 C 23,7 km/h
SW (4 Bft)
Durchschnitt _ 3,1 C 5,3 C 2,5 C 2,6 C 1,4 C 0,0 C 90 % 94 % 0 % 1020,6 hPa #8,9 l/m 6,8 km/h (2 Bft) W-SW - #0 min. 0,0 UV-I 1,6 C -0,6 C 8,4 km/h (2 Bft)
2012 www.wetterstation-wechselburg.de